COSMOS 2251 DEB, 34949

Orbit data source: Space-Track

COSMOS 2251 DEB, 34949 is space debris in LEO originally from a launch on Wed, 16 Jun 1993 UTC launched from the Plesetsk Missile And Space Complex (PKMTR). The debris from Iridium 33, an American commercial communications satellite, has been tracked extensively since its accidental collision with the defunct Russian satellite Cosmos 2251 in 2009. This event, occurring at high speed in low Earth orbit (LEO), generated thousands of pieces of space debris, significantly increasing the risk of further collisions. The Iridium 33 debris cloud has impacted space traffic management and orbital debris mitigation strategies, making it a subject of ongoing study in space situational awareness.

Loading next visibility...
Identifier
34949, 1993-036AEC
Orbit
LEO
Country
Flag of CISCIS
Related business
Manufacturer
Unknown
Mission
Spacecraft
Bus & Motor
Unknown
Mass
Unknown
Launch date (UTC)
1993-06-16 (32 years ago)
Launch vehicle
Unknown
Launch site
Plesetsk Missile And Space Complex (PKMTR)
Object type
Payload
Rocket body
Debris
Shape & HBR
Unknown shape, 0.1 m
Radar Cross Section
Small (<0.1 m²)

Expand to show TLE details & history
Last TLE update: 2 days ago

TLE from 2 days ago
0 COSMOS 2251 DEB
1 34949U 93036AEC 25291.51516787  .00006952  00000-0  10215-2 0  9992
2 34949  74.0193 217.4904 0079476  15.2037 345.1497 14.73493187875485
Epoch: 2025-10-18T12:21Z
TLE epoch observation values (Epoch: 2025-10-18T12:21:50.503Z)
Latitude
0.00004°
Longitude
4.7849°
Altitude
598.623 km
Speed
7.59 km/s
True Right ascension
14h 29m 57s
True Declination
0° 00' 00"
Sunlit
Object was in daylight at epoch
Visualization orbit readout
Latitude
Unknown
Longitude
Unknown
Altitude
Unknown
Speed
Unknown
Apparent Right ascension
Unknown
Apparent Declination
Unknown
Sunlit
N/A
Visualization observer readout
Local Sidereal Time
01:01:11
Azimuth
Unknown
Elevation
Unknown
Doppler factor
Unknown
Orbital elements
Apogee altitude
703.36 km
Perigee altitude
591.685 km
Semi-major axis
7,025.659 km
Eccentricity
0.00795
Inclination
74.0193°
RAAN
217.4904°
Arg. of periapsis
15.2037°
True anomaly
344.91402°
Mean anomaly
345.1497°
Eccentric anomaly
345.03209°
Mean motion
3.68564 °/min
Orbital period
97.68 mins
BSTAR
0.0010215
Loading maneuver chart data...
Computing Atmospheric mass density...

Documentation

Showing up to 5 results
|